Cloud_Cover
73 3 87 50 100 55 21 3 4 0 0 0 0 0 0 0 0 0 0 0 0 0 26 2 0 43 0 0 1 47 3 0 0 0 0 13 68 8 5 5 5 1 3 0 0 0 0 0 0
35 51 4 7 100 72 36 16 5 3 0 0 0 4 1 0 0 0 0 0 0 0 2 8 0 0 0 5 5 5 4 0 0 0 0 0 0 0 0 0 0 0 0 0 0 0 0 0 0
5 100 64 5 98 100 93 92 80 12 51 0 8 3 4 0 0 0 0 0 0 0 0 4 0 0 0 5 5 5 0 0 0 0 0 0 0 0 0 0 0 0 0 0 0 6 0 0 0
97 99 7 66 99 85 35 43 99 12 100 88 0 1 2 0 0 0 0 0 0 0 0 30 2 0 2 5 51 3 1 0 0 0 0 0 0 0 0 0 0 0 0 0 8 0 0 0 0
100 100 77 82 98 97 51 31 100 25 100 100 5 61 4 2 0 1 1 0 0 0 0 16 10 2 2 4 1 0 0 0 0 0 0 0 0 0 0 0 0 0 0 0 0 0 0 0 0
92 100 100 100 99 93 100 100 100 47 100 100 10 87 46 99 100 8 2 0 0 0 0 0 10 5 1 0 0 0 0 0 0 0 0 0 1 3 0 0 0 0 0 0 0 0 0 0 0
86 48 100 100 100 61 100 93 100 89 98 100 16 100 100 98 100 99 20 1 0 2 0 0 5 20 0 0 0 0 0 0 0 0 3 5 6 6 6 0 0 2 5 0 0 0 0 0 0
100 31 10 100 100 98 100 98 98 100 100 100 70 100 100 100 100 100 100 5 0 7 1 0 2 5 24 20 0 0 0 0 0 0 0 1 4 5 5 5 2 4 5 2 5 4 0 0 0
100 100 100 100 100 100 90 90 75 63 100 100 100 96 100 74 100 100 100 58 1 75 1 8 0 2 40 14 7 0 19 0 0 0 0 0 9 0 0 3 5 0 1 4 5 4 5 5 1
100 100 100 100 100 100 100 15 51 12 48 100 100 100 100 28 100 100 100 84 82 44 58 5 70 0 0 0 2 12 100 4 1 0 7 14 5 0 0 0 0 0 0 0 0 5 5 5 5
5 59 100 99 100 100 100 89 100 93 78 99 74 100 100 100 100 100 100 98 90 100 100 7 100 3 1 0 0 3 52 99 5 65 0 7 1 0 0 0 0 4 0 6 0 0 0 1 5
6 4 32 11 78 100 100 100 100 100 100 100 9 15 100 100 100 100 100 100 100 100 100 9 61 39 4 3 0 0 5 81 58 77 100 5 0 0 0 0 0 4 5 0 0 2 5 5 5
5 5 5 5 5 100 97 100 100 68 100 52 100 80 100 40 100 100 100 100 100 100 100 100 100 100 76 5 18 1 0 5 9 91 100 100 76 5 0 0 0 0 0 2 0 0 1 5 5
100 98 90 17 5 5 41 96 62 39 52 40 75 100 100 100 97 100 100 82 100 100 100 100 100 100 100 100 28 92 7 1 5 22 92 100 97 100 65 2 1 0 0 5 5 5 1 1 5
100 100 100 71 14 5 5 1 6 11 95 100 99 71 98 100 99 100 86 100 100 100 100 100 100 100 100 100 100 100 100 100 80 52 100 100 100 100 100 100 99 50 4 2 5 25 5 4 0
98 85 100 97 88 100 18 15 5 5 9 88 65 95 54 26 99 100 90 79 100 100 100 100 100 100 89 100 100 100 100 100 100 100 100 100 100 100 100 100 100 100 63 5 13 5 5 41 17
100 71 6 65 5 14 90 94 7 15 50 99 100 100 100 53 8 22 99 100 97 100 100 100 100 100 100 100 100 100 100 100 100 100 100 100 100 100 100 100 100 100 100 100 100 78 49 74 90
100 23 57 5 88 4 93 100 83 12 17 88 29 77 96 96 51 14 41 99 100 92 87 100 100 100 100 100 100 100 100 100 100 100 100 100 100 100 100 100 100 100 100 100 100 100 100 99 100
70 96 6 78 96 22 5 21 100 100 17 5 23 96 53 5 36 4 5 64 100 87 9 90 100 100 100 100 100 100 100 100 100 100 100 100 100 100 100 100 100 100 100 100 100 100 100 100 75
33 12 10 46 100 56 4 1 5 100 38 6 5 14 55 84 9 5 5 5 18 98 99 94 100 100 100 100 100 100 100 100 100 100 100 100 98 100 100 100 100 100 100 100 100 100 100 100 46
72 6 91 100 100 99 4 4 4 66 95 69 5 75 63 84 91 26 5 5 5 5 20 36 87 98 42 96 80 94 100 100 100 100 100 100 100 100 100 100 100 100 100 100 100 100 100 100 100
98 91 100 100 100 5 76 1 27 30 100 100 100 100 91 6 81 5 5 45 72 100 99 6 58 100 100 95 96 98 100 100 100 100 100 100 100 100 100 95 100 100 100 100 100 100 100 100 100
64 86 100 100 89 31 1 4 0 5 7 99 100 64 90 78 100 100 100 100 99 100 100 100 100 100 100 100 100 100 100 100 98 100 100 100 100 100 100 85 100 100 100 100 100 100 100 100 100
100 65 100 100 99 78 2 7 0 64 96 86 100 100 54 97 100 100 100 100 99 99 100 100 100 100 100 100 100 100 100 100 100 89 96 100 100 100 100 100 100 100 100 100 100 100 100 100 100
66 100 100 100 91 41 27 99 7 83 100 100 100 100 89 94 72 100 100 100 100 100 100 100 100 100 100 100 100 100 100 100 100 100 100 100 100 100 100 100 99 34 61 100 100 100 100 100 100
100 100 100 91 76 9 80 4 48 100 100 100 100 100 100 98 100 99 100 100 100 100 100 100 100 100 100 100 100 100 100 100 100 100 100 100 100 100 100 97 6 45 75 51 68 100 100 100 100
100 92 100 100 100 100 7 5 21 100 100 100 100 100 100 100 100 41 98 100 100 100 100 100 100 100 100 100 100 100 100 100 100 100 100 100 100 100 100 99 32 5 65 64 20 91 98 100 100
100 86 100 100 100 100 51 5 0 87 100 100 100 100 100 100 99 19 24 99 100 100 100 100 100 100 100 100 100 100 100 100 100 100 100 100 100 100 100 100 100 83 48 76 79 67 90 100 100
100 100 100 100 100 100 92 44 0 16 100 100 100 100 100 100 100 100 100 100 100 100 100 100 100 99 100 100 100 100 100 100 100 100 100 100 100 100 100 100 73 69 93 76 79 80 98 100 100
100 100 100 100 100 100 100 38 0 0 12 100 100 100 100 100 100 98 35 100 100 100 100 100 100 100 100 100 100 100 100 100 100 100 100 100 100 100 100 34 44 94 84 9 24 77 100 100 100